Regional Weather Roundup
Issued by NWS

Home | Current Version | Previous Version | Graphics & Text | Print | Product List | Glossary On
Versions: 1 2 3 4 5 6 7 8 9 10 11 12 13 14 15 16 17 18 19 20 21 22 23 24 25 26 27 28 29 30 31 32 33 34 35 36 37 38 39 40 41 42 43 44 45 46 47 48 49 50
000
ASUS43 KFSD 310202
RWRSD

WEATHER ROUNDUP FOR SOUTH DAKOTA
NATIONAL WEATHER SERVICE SIOUX FALLS SD
900 PM CDT SAT JUL 30 2016

NOTE: "FAIR" INDICATES FEW OR NO CLOUDS BELOW 12,000 FEET WITH NO
SIGNIFICANT WEATHER AND/OR OBSTRUCTIONS TO VISIBILITY.


SDZ001>005-009-010-012>017-310300-
NORTHWEST AND NORTH CENTRAL SOUTH DAKOTA

CITY           SKY/WX    TMP DP  RH WIND       PRES   REMARKS
BUFFALO          N/A     86  54  33 SE10      29.73S
FAITH            N/A     83  59  44 SE15      29.80R
MOBRIDGE       CLOUDY    69  63  81 E12G23    29.80S
$$

SDZ012>016-024>037-041>051-057-063-072>074-310300-
SOUTHWEST AND SOUTH CENTRAL SOUTH DAKOTA

CITY           SKY/WX    TMP DP  RH WIND       PRES   REMARKS
RAPID CTY ARPT CLOUDY    77  60  55 SE10      29.81R
PIERRE         CLEAR     83  63  50 SE20      29.78S
CUSTER         CLOUDY    77  54  44 SE8G17    29.96R
ELLSWORTH AFB  MOCLDY    79  60  51 W20G25    29.85R
PHILIP         CLEAR     75  63  66 S14G23    29.80R
PINE RIDGE     CLOUDY    77  62  59 E12       29.85R
WINNER         FAIR      79  67  66 SE12      29.85F
$$

SDZ004>011-016>023-039-040-310300-
NORTHEAST SOUTH DAKOTA

CITY           SKY/WX    TMP DP  RH WIND       PRES   REMARKS
ABERDEEN       CLOUDY    73  60  63 SE7       29.87R
WATERTOWN      CLEAR     73  60  63 SE9       29.93S
BROOKINGS      CLEAR     71  60  68 SE8       29.94S
SISSETON         N/A     71  60  68 S7        29.91S
$$

SDZ017-020-022-023-036>040-048>070-310300-
SOUTHEAST SOUTH DAKOTA

CITY           SKY/WX    TMP DP  RH WIND       PRES   REMARKS
SIOUX FALLS    PTCLDY    75  58  55 SE8       29.93F
HURON          CLOUDY    77  61  57 SE8       29.88R
CHAMBERLAIN    CLEAR     79  68  69 SE13      29.87R
MITCHELL       CLEAR     77  63  61 SE12      29.90R
YANKTON        CLEAR     73  61  64 SE6       29.92R
$$

ABBREVIATIONS USED IN REMARKS
   TC - TEMPERATURE IN CELSIUS
  WCI - WIND CHILL INDEX
   HX - HEAT INDEX
  VSB - VISIBILITY




USA.gov is the U.S. government's official web portal to all federal, state and local government web resources and services.